Location: *
(50.0228°S, 177.2688°W)
Time: 02:22:14
(UTC+00:00)

Cosmos 1844 - Pass Details

Date: 07 April 2020
Orbit: 821 x 869 km, 70.9° (Epoch: 25 May)

Event Time Altitude Azimuth Distance (km) Brightness Sun altitude
Rises 05:46:57 0° 351° (N) 3,454 7.1 -4.7°
Reaches altitude 10° 05:49:28 10° 356° (N) 2,523 6.3 -5.1°
Maximum altitude 05:55:03 50° 70° (ENE) 1,113 4.0 -6.0°
Drops below altitude 10° 06:00:40 10° 142° (SE) 2,537 5.8 -6.9°
Sets 06:03:12 0° 147° (SSE) 3,475 6.6 -7.3°
